User: anonymous   Login
Location: Laguna de la Cañada del Gallo
(40.3974°N, 5.2096°W)
Time: 15:47:07
(UTC+00:00)
Language:

Cosmos 2297 Rocket - Orbit

View from above orbital plane
View from above orbital plane
View from above satellite
View from above satellite

Ground track
Ground track

The orbit data is extracted from the following two-line orbital elements,

1 23405U 94077B   24176.54961893 -.00000160  00000-0 -57429-4 0  9996
2 23405  70.9815 223.3110 0002378 335.9296  24.1715 14.15396407528055
Epoch (UTC): 24 June 2024 13:11:27
Eccentricity: 0.0002378
inclination: 70.9815°
perigee height: 839 km
apogee height: 842 km
right ascension of ascending node: 223.3110°
argument of perigee: 335.9296°
revolutions per day: 14.15396407
mean anomaly at epoch: 24.1715°
orbit number at epoch: 52805

The dashed part of the orbit path shows where the satellite is in the earth's shadow,  

DLR